マックホルツ第2彗星

141P/Machholz 2 (2020)

English version
Home page
Updated on January 23, 2021

---------------------------------------------------------------------

・ プロフィール

・ 写真集

・ 軌道要素

                    Epoch = 2020 Dec. 17.0 TT
     T = 2020 Dec. 16.26997 TT        Peri. = 153.54399
     e = 0.7356668                    Node  = 241.84951 2000.0
     q = 0.8079340 AU                 Incl. =  13.94456
       a =  3.0564980 AU   n = 0.18444543   P =   5.34 years

・ 星図

・ 光度変化

        m1 = 13.5 + 5 logΔ + 25 log r(t - 15)

---------------------------------------------------------------------

軌道要素はCBET 4834に掲載されたものです。
星図はステラナビゲータ Ver.10 (アストロアーツ) で作成したものです。
光度グラフはComet for Windowsで作成したものです。

---------------------------------------------------------------------

Copyright(C) Seiichi Yoshida (comet@aerith.net). All rights reserved.